Theta_e
322 318 316 316 316 319 322 324 326 327 326 325 325 324 323 323 323 323 322 321 319 317 317 317 315 315 316 315 315 315 315 316 316 316 318 318 313 313 313 312 313 312 313 312 310 310 310 310 310 309 309 309 308 308 308 308 308 308 308 308 308 308 308 308 309 309 309 309 309 309 309 308 307 308 308 308 308 308 308 308 308 308 308 309 307 308 307 311 318 314 314 315 315 321 319 319 321
322 321 317 316 318 320 322 324 326 327 325 324 324 324 325 324 323 323 322 319 318 317 317 316 315 315 315 315 314 314 315 315 316 317 318 315 313 313 312 313 313 313 313 312 311 310 310 310 310 309 309 309 309 308 308 308 308 308 308 308 307 307 308 308 308 308 309 309 309 309 309 308 307 307 308 308 308 308 308 308 308 308 309 308 308 308 308 312 316 312 311 310 310 320 320 318 319
322 321 319 316 320 322 323 324 325 325 325 323 323 324 326 324 323 322 320 318 317 317 317 316 315 315 315 315 314 314 315 316 316 316 316 314 314 314 313 313 312 313 312 312 312 310 310 310 310 309 309 309 308 308 308 308 308 307 307 307 307 307 307 308 308 308 309 309 309 309 309 308 307 307 307 308 307 308 308 308 308 308 309 308 308 308 308 311 313 312 311 310 310 316 316 316 316
322 319 319 317 320 323 324 325 325 324 324 323 323 325 325 324 323 321 319 319 318 317 317 316 315 315 315 315 315 315 316 316 316 315 315 315 314 314 313 312 312 313 312 312 311 311 310 310 310 309 309 309 308 308 308 308 307 307 307 307 307 307 307 307 308 308 309 308 309 309 309 308 307 307 307 308 307 308 308 308 308 308 309 308 308 308 309 311 313 312 310 311 312 313 314 315 315
323 318 317 318 320 322 324 325 325 325 324 324 323 325 325 324 323 321 320 320 319 318 317 316 315 315 315 315 315 315 315 315 315 314 314 315 315 314 312 311 312 312 312 312 311 311 311 310 309 309 309 309 308 308 307 307 307 307 307 307 307 307 307 307 307 308 308 308 309 309 309 308 307 307 307 308 307 308 308 308 308 308 309 308 308 308 309 312 313 312 311 312 314 314 314 315 316
324 319 317 319 320 320 321 323 324 324 325 325 324 324 325 323 323 322 320 320 318 318 317 316 316 315 315 314 315 315 315 315 315 314 314 314 313 312 311 311 311 312 312 311 311 311 311 310 309 309 309 308 308 308 307 307 307 307 307 307 307 307 307 307 307 307 308 308 308 309 309 308 308 307 307 307 307 308 308 308 308 308 308 308 308 308 309 312 313 312 312 313 314 315 315 316 315
322 318 317 321 321 320 321 321 322 323 325 325 325 324 324 323 322 322 322 321 317 317 316 316 316 315 315 315 315 315 315 315 315 314 313 312 312 312 311 311 311 312 312 312 312 311 311 310 309 309 309 309 308 308 307 307 307 307 307 307 307 307 307 307 307 307 308 308 308 309 308 308 308 307 307 307 308 308 308 308 308 308 308 309 308 308 309 313 314 312 313 314 315 316 317 316 314
319 316 318 322 323 322 321 321 321 322 323 324 324 324 324 324 323 322 322 321 319 317 316 316 315 315 316 316 315 316 315 315 315 314 313 313 311 311 311 311 311 311 312 311 311 311 311 309 309 309 308 308 308 308 307 307 307 307 307 307 307 307 307 307 307 307 307 308 308 308 308 308 308 307 307 307 308 308 308 308 308 308 309 309 308 308 309 313 314 312 314 315 316 317 317 318 315
317 317 318 320 321 322 322 322 322 322 323 323 324 324 324 324 323 322 322 322 321 319 317 316 315 315 318 316 316 316 315 315 315 314 314 313 312 311 311 311 311 310 311 311 311 311 310 309 309 309 308 308 308 307 307 307 308 308 308 307 307 307 307 307 307 307 307 308 308 308 308 308 308 307 307 307 307 307 308 308 308 308 309 309 308 308 309 313 315 312 313 316 316 316 317 318 317
316 319 319 320 321 322 323 323 323 323 323 323 324 324 324 323 323 322 321 321 321 320 318 316 315 315 317 316 317 317 316 316 315 315 314 313 312 311 310 310 310 310 310 310 310 310 310 309 309 309 308 308 308 307 307 307 308 308 308 308 308 307 307 307 307 307 307 307 308 308 308 308 308 307 307 307 307 308 308 308 308 308 309 309 308 308 309 313 315 314 313 315 317 316 317 318 318
317 319 319 320 321 323 324 324 323 323 323 323 323 324 323 323 322 321 321 320 321 320 317 316 316 315 316 316 317 317 316 316 315 315 313 312 311 310 310 310 310 310 310 310 310 310 310 309 309 309 308 308 308 307 307 307 308 308 308 308 308 307 307 307 307 307 307 307 308 308 308 308 308 308 307 307 307 307 308 308 308 308 309 309 308 308 309 312 315 314 315 316 317 315 317 318 319
318 320 320 320 321 322 323 323 323 323 323 322 323 322 322 322 321 321 320 320 320 320 318 316 317 316 316 316 317 317 317 317 316 314 312 312 312 311 311 310 310 310 310 310 310 310 310 309 309 309 309 308 308 307 307 307 308 308 309 309 308 308 307 307 307 307 307 307 308 308 308 308 308 308 307 307 307 307 308 308 308 309 309 309 309 308 308 312 314 315 316 317 316 315 316 318 319
318 320 321 321 321 321 322 321 322 322 321 321 321 321 321 321 321 320 320 320 320 320 319 317 317 316 316 317 317 317 316 316 316 314 313 313 313 313 312 311 310 310 310 310 310 310 310 310 309 309 309 308 308 307 307 307 307 308 309 309 309 309 308 308 307 307 307 307 308 308 308 308 308 308 307 307 307 307 308 308 308 309 309 309 309 308 308 311 313 314 316 317 316 314 316 318 320
317 319 320 321 322 321 321 321 320 320 320 321 320 319 319 320 320 319 319 319 319 318 317 317 317 316 316 317 317 316 315 315 315 313 313 314 314 314 314 313 312 310 310 310 310 310 310 310 310 309 309 309 308 308 307 307 307 308 309 310 309 309 308 308 307 307 307 307 308 308 308 308 308 308 308 307 307 307 308 308 308 309 309 309 309 308 308 310 312 314 316 317 315 314 315 317 319
317 318 320 320 321 321 321 321 321 320 320 321 320 318 318 319 319 319 318 318 318 317 316 316 316 316 317 317 317 316 315 315 314 313 313 313 314 315 314 314 313 311 311 310 310 310 310 310 310 310 309 309 308 308 308 307 307 308 309 309 310 310 309 308 308 307 307 308 308 308 309 308 308 308 308 308 307 307 308 308 308 309 309 309 309 308 308 310 311 313 314 317 315 313 314 314 318
317 318 320 320 321 322 321 320 320 320 320 321 319 318 318 319 319 318 318 317 318 316 316 316 316 316 317 317 316 315 315 314 313 312 313 313 314 315 315 315 314 312 311 310 310 310 310 310 310 310 310 309 308 308 308 308 307 307 308 309 310 310 309 309 308 308 307 308 308 308 308 308 308 308 308 308 307 307 307 308 308 309 309 309 309 308 308 309 311 311 312 315 315 313 313 313 319
316 317 319 320 320 321 321 319 319 320 320 320 319 317 317 318 317 317 316 316 316 316 316 315 315 315 316 317 316 315 315 314 313 314 313 314 316 316 316 315 315 314 312 311 311 310 310 310 310 310 310 309 309 308 308 308 307 307 307 309 309 310 309 309 308 308 308 308 308 308 308 308 308 308 308 308 307 308 307 308 308 309 309 309 309 308 308 309 311 311 310 314 315 313 312 313 319
315 316 318 319 319 320 321 319 319 319 319 319 319 317 317 318 317 316 315 315 315 315 315 316 316 315 316 317 317 316 315 316 316 316 315 316 316 316 317 316 315 315 313 312 312 312 311 311 310 310 310 309 309 309 309 308 307 307 307 308 309 310 310 309 309 308 308 308 308 308 308 308 308 308 308 308 307 308 308 308 308 309 309 309 309 308 308 308 311 311 309 312 314 313 312 313 317
315 316 318 318 318 319 319 318 318 318 318 319 319 318 317 318 318 317 316 317 316 316 316 316 317 317 317 317 317 316 316 317 317 317 317 317 317 317 317 316 316 315 314 313 313 313 312 312 310 310 310 310 309 309 309 308 308 307 306 307 308 309 310 309 309 308 308 308 308 308 308 308 308 308 308 308 308 307 308 308 309 309 309 309 309 308 308 308 311 311 309 311 314 313 313 313 314
314 316 318 317 318 318 318 318 318 318 317 318 318 318 317 318 318 317 317 317 317 317 317 317 317 318 318 317 317 317 316 316 317 317 317 317 317 316 316 316 316 315 315 315 314 314 313 313 312 311 310 309 309 309 309 309 309 308 306 306 307 309 309 309 309 308 307 307 308 308 308 308 308 308 308 308 307 307 308 308 309 309 309 309 308 308 307 308 310 311 309 311 313 313 313 313 314
315 315 317 318 317 318 318 318 318 317 317 318 318 317 317 317 317 317 317 317 317 317 317 317 317 318 319 319 318 318 317 316 316 316 316 316 317 316 316 316 315 315 315 315 314 314 313 313 312 312 311 310 309 309 309 309 309 308 307 306 306 308 309 309 309 308 308 307 308 308 308 308 308 308 308 308 307 308 308 308 309 309 310 309 308 308 307 308 310 311 311 312 313 314 313 313 314
315 314 315 316 316 317 317 317 317 317 317 317 317 317 317 317 317 317 317 317 317 317 317 317 317 318 318 318 318 317 316 317 316 316 316 317 316 316 316 315 315 314 314 314 314 314 313 313 313 312 311 310 310 309 309 309 309 309 307 306 306 307 308 309 309 308 308 308 308 308 308 308 308 308 308 308 307 307 308 308 309 309 310 309 309 308 308 308 310 312 313 313 314 313 312 313 313
315 314 314 315 315 315 315 316 316 317 317 317 317 317 316 316 316 316 316 316 316 316 316 317 317 317 317 317 317 316 315 316 316 316 316 317 316 315 315 314 314 314 314 314 313 314 313 313 313 312 311 311 310 309 309 309 309 309 308 307 306 306 307 308 309 308 308 308 308 308 308 308 308 308 308 308 307 308 308 308 309 309 310 309 309 309 307 308 309 313 314 312 314 313 311 312 313
314 314 314 315 315 315 315 315 315 315 316 315 316 316 315 315 315 315 315 315 316 316 316 316 316 316 316 316 315 314 314 314 314 315 315 316 315 315 314 314 314 313 313 313 313 313 313 313 312 311 311 311 310 309 309 309 309 309 308 307 306 306 307 307 308 308 308 308 308 308 308 308 308 308 308 308 308 308 308 308 309 309 309 309 309 308 307 307 309 313 314 312 314 312 310 312 312
314 314 314 314 313 314 315 315 315 315 315 315 315 314 314 315 315 314 314 314 314 315 315 314 314 314 314 314 314 314 313 314 314 314 314 315 315 314 314 314 314 313 313 313 313 313 312 312 312 311 310 310 311 310 309 309 309 309 308 307 306 306 306 307 307 308 308 308 308 308 308 308 308 308 308 308 308 308 308 308 309 309 309 309 309 308 308 307 308 313 315 313 313 309 309 312 312
314 313 313 313 313 313 314 315 315 315 315 314 314 313 313 314 313 313 313 313 313 313 313 313 313 313 313 314 314 314 314 314 314 314 314 314 314 313 313 314 314 313 312 312 312 312 312 311 311 311 310 310 310 310 309 309 309 308 308 308 306 306 306 306 307 307 308 308 308 308 308 308 308 308 308 308 308 308 308 308 309 309 309 309 309 308 308 307 307 311 313 313 311 308 308 311 312
312 313 313 312 313 313 314 314 315 315 314 314 314 313 313 313 312 312 312 312 312 313 313 313 313 314 314 314 314 314 314 314 314 314 314 313 313 312 312 312 312 312 312 312 311 311 311 311 311 311 310 309 309 310 309 309 309 308 308 308 307 306 306 306 306 307 307 308 308 308 308 308 308 308 308 308 308 308 308 308 309 309 309 309 309 308 309 307 307 309 310 311 311 308 308 310 311
312 312 311 311 312 313 312 313 314 314 313 313 313 312 312 312 312 311 311 312 312 312 313 313 313 313 313 313 313 313 313 313 313 313 313 312 312 311 311 311 311 311 311 311 311 311 310 310 310 310 310 310 309 309 310 309 308 309 308 308 307 306 306 306 306 306 307 308 308 308 308 308 308 308 308 308 308 308 308 308 309 309 309 309 309 309 308 308 307 307 308 309 309 307 307 308 309
312 311 310 310 311 311 312 312 312 313 313 312 311 310 310 311 311 311 312 312 312 312 313 313 313 313 313 313 312 312 312 312 312 312 312 312 311 311 311 312 312 312 312 311 311 310 310 310 310 311 310 310 309 309 309 309 308 308 308 308 308 307 306 306 306 306 307 308 308 308 308 308 308 308 308 308 308 308 308 308 309 309 309 309 309 309 308 308 308 307 307 307 307 306 306 307 308
311 310 310 311 311 311 312 312 312 312 312 310 309 309 310 312 312 312 313 313 313 313 313 313 313 313 313 312 312 312 312 312 312 312 312 312 312 312 312 312 312 312 312 311 311 311 310 310 311 311 311 310 310 309 309 309 308 308 308 308 308 307 306 306 306 306 307 308 308 308 308 308 308 308 308 308 308 308 308 308 309 309 309 309 308 308 308 308 308 308 307 306 307 307 306 306 307
309 310 311 311 310 311 312 311 310 310 310 309 309 309 310 311 312 312 313 314 313 314 314 313 313 313 312 312 312 312 312 312 312 312 312 312 312 312 312 312 312 312 312 312 312 311 311 311 311 311 311 311 310 309 309 309 308 308 308 308 308 308 306 306 306 306 307 308 308 308 308 308 308 308 308 308 308 308 308 308 308 309 309 309 308 308 308 308 308 308 307 307 307 307 306 306 307
310 311 312 312 310 311 311 310 309 310 309 308 309 309 309 310 312 313 313 314 313 313 312 312 312 312 312 312 312 312 312 312 313 312 312 313 312 312 312 312 312 312 312 312 312 312 312 311 311 312 312 311 311 311 310 309 308 308 308 308 308 308 307 306 306 306 306 307 308 308 308 308 308 308 308 308 308 308 308 308 308 309 309 308 308 308 308 308 308 307 308 307 307 307 306 306 307
312 311 312 313 311 311 311 309 309 310 309 308 309 309 309 310 311 312 313 312 312 312 312 312 312 312 313 313 313 313 313 313 313 313 313 313 313 313 313 312 312 312 312 312 312 312 312 312 312 312 312 312 311 311 311 309 309 308 308 308 308 308 307 306 306 306 306 307 308 308 308 308 308 308 308 308 308 308 308 308 308 309 308 308 308 308 308 308 308 307 308 307 307 307 306 306 307
314 312 312 313 312 312 312 310 310 310 309 309 309 309 309 310 310 311 311 311 312 311 311 312 312 313 313 313 314 313 313 313 314 314 313 313 313 313 313 312 312 312 312 312 312 312 312 312 312 312 312 312 311 311 311 310 309 308 308 308 308 308 307 306 306 306 306 307 308 308 308 308 308 308 308 308 308 308 308 308 308 309 308 308 308 308 308 308 308 307 307 307 307 307 307 307 307
315 314 313 313 312 312 311 310 310 310 309 309 310 309 309 310 310 310 311 312 312 312 312 313 313 314 314 314 314 314 314 314 314 314 314 314 314 314 313 313 313 312 312 312 312 312 312 312 312 312 312 311 311 310 310 310 309 307 307 308 308 308 307 306 306 306 306 307 308 308 308 308 308 308 308 308 308 308 308 308 308 308 308 308 308 308 308 308 308 307 307 307 307 307 307 307 307
314 314 313 314 313 312 312 311 309 309 310 310 310 309 309 310 310 310 312 312 313 313 313 313 314 314 315 315 315 315 315 315 315 315 315 315 315 315 314 314 313 313 312 312 312 312 312 312 312 312 312 312 311 310 310 310 309 307 307 307 307 308 308 307 306 306 306 306 307 308 308 308 308 308 308 308 308 308 308 308 308 308 308 308 308 308 308 308 308 308 307 307 307 307 307 307 307
314 314 313 314 313 312 312 312 310 309 310 310 310 310 310 310 311 312 313 313 314 313 313 313 314 315 315 316 316 316 316 316 316 316 315 314 314 314 314 314 313 313 312 312 312 312 312 312 313 313 313 313 312 311 310 310 309 308 307 308 308 308 308 307 306 306 306 306 307 308 308 308 308 308 308 308 308 308 308 308 308 308 308 308 308 307 307 308 308 308 307 307 307 307 307 307 307
313 313 312 313 313 312 312 313 311 309 310 311 311 311 311 311 312 312 312 313 314 314 313 313 314 315 316 317 317 318 317 317 317 316 315 314 313 313 313 313 313 313 313 313 313 313 313 313 314 314 313 313 313 312 311 310 310 309 308 308 308 308 308 308 307 306 306 306 306 307 308 308 308 308 308 308 308 308 308 308 308 308 308 308 308 307 307 308 308 308 308 307 307 307 307 306 307
314 314 313 313 312 312 313 314 311 310 311 312 311 311 311 311 312 312 312 312 312 313 314 314 315 316 317 317 317 317 317 316 316 317 316 315 313 313 313 313 313 313 314 314 314 314 314 315 315 314 314 313 312 312 311 310 310 309 308 308 308 308 308 308 307 306 306 306 306 307 307 308 308 308 308 308 308 308 308 308 308 308 308 308 308 307 307 307 308 308 308 307 307 307 307 306 307
314 314 314 313 313 314 314 314 312 311 311 311 312 312 311 312 314 314 315 314 314 315 315 316 316 316 317 317 316 316 315 315 316 317 317 315 313 313 314 314 314 314 315 315 315 315 315 315 314 314 314 314 313 311 311 310 310 308 307 307 307 308 308 308 307 306 305 306 306 306 307 307 308 308 308 308 308 308 308 308 308 308 308 308 308 308 307 307 307 308 308 307 307 307 307 307 307
314 314 313 313 314 315 314 314 313 313 313 312 313 315 316 316 316 316 315 316 318 317 317 317 316 317 317 317 315 314 313 313 315 316 315 315 313 313 313 313 314 314 315 315 314 314 314 314 314 314 314 314 313 311 310 310 309 308 307 307 307 307 308 307 307 306 306 306 306 306 306 307 308 308 308 308 308 308 308 308 308 308 307 308 308 308 308 307 307 307 307 308 307 307 307 307 307
313 315 315 315 315 316 315 315 315 317 317 315 315 318 321 318 314 314 313 315 318 318 320 320 317 318 317 316 315 313 313 314 314 314 313 314 313 313 313 312 313 314 315 315 314 314 314 314 314 314 313 313 313 312 310 309 309 308 307 307 307 308 308 308 308 308 307 307 306 306 306 306 307 308 308 308 308 308 308 308 307 307 307 307 308 308 308 307 307 307 307 307 308 307 307 307 307
314 316 317 317 316 316 316 315 316 319 319 317 316 317 318 315 311 313 313 314 318 318 321 321 317 317 317 315 316 315 315 315 315 314 313 313 313 312 312 313 313 313 314 314 314 314 313 314 313 313 313 312 312 312 310 309 309 308 307 307 308 308 308 308 308 308 307 307 307 306 306 306 307 308 308 308 308 308 308 308 307 307 307 307 307 308 308 307 307 307 307 307 307 307 307 307 307
315 316 316 316 314 315 316 316 318 319 317 318 319 316 316 315 313 314 314 315 318 319 321 321 317 316 316 316 316 316 316 315 314 313 312 312 312 312 312 312 313 313 314 314 313 314 313 313 313 313 312 312 312 312 311 310 309 308 307 307 307 308 308 308 308 308 307 307 307 306 306 306 306 307 308 308 307 308 308 308 307 307 307 307 307 308 308 308 307 307 307 307 307 307 307 307 307
316 315 316 316 315 316 317 317 318 318 317 319 320 316 317 320 316 314 315 315 317 319 320 320 318 316 316 316 316 316 315 314 313 312 312 312 311 311 312 312 313 313 313 313 313 313 313 313 313 313 313 312 312 312 311 310 309 308 307 307 307 307 308 308 308 308 308 307 307 306 306 306 306 307 308 308 307 307 308 308 308 307 307 307 307 307 308 308 308 307 307 307 307 308 307 307 307
314 313 315 315 315 316 316 317 317 316 318 319 320 318 317 321 318 313 315 317 319 320 319 319 317 316 316 317 316 316 315 314 313 312 311 311 311 312 312 312 313 313 313 313 313 313 313 313 313 313 313 312 312 312 311 310 309 308 308 307 307 307 307 307 307 308 307 307 307 306 306 306 306 306 308 308 307 307 307 307 308 307 307 307 307 307 307 307 308 308 307 307 307 307 308 307 307
313 314 316 317 317 316 315 316 315 315 319 319 317 317 314 317 320 315 315 318 319 319 318 318 318 316 317 317 316 315 313 313 312 311 311 311 312 312 312 312 313 313 313 313 313 313 313 313 313 313 313 312 312 312 311 310 310 309 308 308 307 307 307 307 307 307 307 307 307 307 307 306 306 306 307 308 307 307 307 307 308 308 307 307 307 307 307 307 308 308 307 307 307 307 307 308 307
314 316 317 317 318 318 316 315 314 316 322 319 315 315 313 316 320 317 315 316 316 317 316 317 319 318 316 315 315 313 312 312 312 312 312 312 312 312 312 313 313 313 313 313 313 313 313 313 313 313 313 313 313 312 312 311 310 310 309 309 308 308 307 307 307 307 308 308 308 307 307 307 306 306 307 308 308 308 308 308 308 308 308 307 307 307 307 307 307 307 307 307 307 307 307 307 307
314 315 315 315 316 318 318 318 319 319 319 316 313 315 317 317 315 313 314 314 314 317 317 317 319 317 315 314 313 312 312 312 311 312 312 312 312 312 312 312 312 312 312 312 313 313 313 313 313 313 313 313 313 313 312 312 311 310 310 309 309 308 307 307 307 307 308 308 308 308 307 307 307 306 307 308 308 308 308 308 308 308 308 308 307 307 307 306 307 307 307 307 306 306 306 306 307
312 315 316 316 316 315 316 318 319 318 317 315 313 314 318 318 314 314 315 314 315 316 316 316 316 315 315 314 312 312 312 312 312 312 312 312 312 312 312 312 312 312 312 312 312 312 312 312 313 313 313 313 313 313 312 312 311 310 310 309 309 309 308 308 307 307 308 308 308 308 307 307 307 307 306 307 308 308 308 308 308 308 308 308 307 307 307 307 306 306 306 306 306 306 306 306 306
312 315 316 317 317 316 317 318 318 318 318 316 312 315 320 320 317 317 317 315 315 314 314 315 315 314 314 313 312 312 312 312 312 312 312 312 312 312 312 311 312 312 312 312 312 312 312 312 312 312 313 313 313 313 313 312 312 311 310 310 309 309 308 308 308 307 307 308 308 308 307 307 307 307 307 307 307 308 308 308 308 308 308 308 307 307 307 306 306 306 306 306 306 306 306 306 306
314 315 317 318 318 317 318 317 315 316 317 316 315 318 321 319 317 317 316 316 314 313 314 314 314 314 312 312 313 312 312 312 312 312 311 311 311 311 311 311 311 311 310 311 311 312 312 312 312 312 312 312 312 313 313 312 312 312 311 311 310 310 309 309 308 308 308 308 307 308 307 307 307 307 307 307 307 307 308 308 308 308 308 307 307 307 307 307 306 306 306 306 306 306 306 306 306
315 316 317 317 315 315 316 316 314 314 317 319 319 319 318 316 317 318 315 315 315 314 314 313 314 313 312 313 313 312 312 312 311 311 311 311 310 310 310 310 310 310 309 310 310 311 312 312 312 312 312 312 312 312 312 312 312 312 312 311 311 310 310 310 309 308 308 308 308 307 307 307 307 307 307 307 306 307 307 308 308 307 307 307 307 307 307 307 306 306 306 306 306 306 306 306 306
314 315 315 315 313 312 314 315 316 317 319 320 318 318 318 316 318 319 316 316 316 315 315 314 315 314 313 313 313 312 312 312 311 312 311 311 310 309 309 309 309 309 308 308 309 310 311 311 311 311 311 311 311 312 312 312 312 312 312 312 311 310 310 310 309 308 308 308 307 307 307 307 307 307 307 307 307 307 307 307 307 307 307 307 307 307 307 306 306 306 306 306 306 306 306 306 306
311 312 311 312 314 315 315 314 316 317 318 319 320 318 316 317 317 317 317 317 316 315 315 315 317 316 314 314 314 313 312 311 312 312 311 311 310 309 308 308 308 308 308 308 308 309 309 310 310 311 311 311 311 311 311 311 311 311 311 311 311 311 310 309 309 308 308 308 307 307 307 307 307 307 307 307 307 307 307 307 307 307 307 307 307 307 306 306 306 306 306 306 306 306 306 306 306
309 310 310 310 312 315 316 315 316 317 317 319 322 319 316 319 319 316 317 317 315 316 315 316 318 315 314 315 315 314 312 312 312 311 311 311 309 309 308 308 308 308 307 308 307 308 308 309 310 310 311 311 311 311 311 311 311 311 311 311 311 311 311 310 309 309 308 308 307 307 307 307 307 307 307 307 307 307 307 306 307 307 307 307 307 307 306 306 306 306 306 306 306 306 306 306 306
310 310 312 311 311 312 314 315 316 316 317 317 318 318 317 318 318 317 317 315 315 317 317 319 318 314 314 316 316 315 313 312 312 311 312 311 309 309 308 308 308 307 307 307 307 307 308 308 309 309 310 310 311 311 311 311 311 311 311 311 311 311 310 311 310 310 309 309 308 307 307 307 307 307 307 307 307 307 307 306 306 307 307 307 307 307 306 306 306 306 306 306 306 306 306 306 306
311 311 312 313 313 314 315 316 315 314 316 317 317 318 317 316 316 317 315 316 317 317 319 320 317 314 314 315 315 314 312 312 312 312 311 310 309 309 308 308 308 307 307 307 307 307 307 307 308 308 309 310 310 310 310 310 311 311 311 311 311 311 310 310 310 310 310 309 309 309 308 307 307 307 307 307 307 307 307 307 306 306 306 307 307 306 306 306 306 306 306 306 306 306 306 306 306
Wind_Speed
12 12 13 12 10 10 9 8 6 3 2 4 4 5 5 3 2 2 4 1 2 3 8 3 1 2 2 3 3 6 9 7 6 2 2 2 3 2 1 1 2 5 6 5 7 8 8 8 7 7 6 6 6 6 6 6 6 6 5 6 6 6 6 7 7 8 7 6 5 4 4 4 4 4 5 6 7 7 7 8 8 9 10 11 12 13 15 13 11 12 12 13 13 12 11 9 11
12 12 12 13 10 8 9 7 3 3 3 4 4 6 7 3 1 2 2 4 5 3 4 2 1 3 5 6 7 8 8 7 8 4 2 2 2 3 4 4 4 6 7 6 7 8 8 8 8 7 7 7 6 6 6 7 7 6 6 6 6 6 6 7 7 7 7 6 5 4 4 4 4 4 4 6 6 7 7 8 8 8 9 10 12 13 14 13 12 14 14 14 14 13 11 11 13
12 12 11 12 11 8 9 7 3 4 3 5 4 5 6 3 1 2 7 8 8 5 4 3 2 4 4 5 5 4 5 4 4 2 1 3 5 6 4 5 7 7 8 7 7 8 8 8 8 8 8 7 7 7 7 8 7 7 7 7 7 6 6 7 6 7 7 6 5 5 5 4 4 3 4 5 6 7 7 7 8 8 9 10 12 13 13 13 13 15 15 13 13 12 12 12 14
11 11 10 10 10 8 6 4 3 4 4 4 3 7 5 2 2 3 11 8 5 4 3 2 2 3 4 5 3 5 7 6 4 3 2 4 6 7 5 5 7 8 9 8 8 9 9 8 8 8 8 8 8 8 8 8 8 8 7 7 7 7 7 7 7 6 6 6 6 6 5 5 4 3 3 4 5 6 7 7 7 8 8 10 11 12 13 13 14 15 14 13 12 12 12 14 15
11 9 8 6 6 5 2 3 4 4 5 4 3 7 6 2 1 4 11 6 1 1 2 3 2 2 4 7 5 2 3 3 4 5 4 6 9 8 6 7 8 8 9 9 9 10 9 9 9 9 9 9 9 8 9 9 8 8 8 8 8 7 7 7 7 7 6 6 6 6 6 6 5 4 3 4 5 5 6 7 7 7 8 9 11 12 12 13 15 14 13 12 12 13 14 15 17
12 9 7 4 6 7 4 3 4 5 5 5 5 7 10 7 3 5 5 8 6 3 5 6 4 2 4 8 9 7 5 3 2 4 7 8 10 8 6 7 8 8 10 11 10 11 10 9 10 10 10 10 9 9 9 9 9 9 8 8 8 8 8 8 8 7 6 6 6 6 6 6 6 5 4 4 4 5 6 6 7 7 7 9 10 11 11 12 14 14 12 12 13 14 15 16 17
9 8 5 4 7 7 3 4 6 5 5 6 7 7 11 8 5 6 2 3 6 5 6 6 4 1 4 5 8 9 10 9 6 6 9 9 9 9 7 8 8 8 10 12 11 12 10 9 11 11 10 10 10 10 10 10 10 9 9 9 9 9 8 8 8 8 7 6 6 6 7 7 6 6 5 4 5 5 6 6 6 6 7 9 10 11 11 12 14 13 12 12 13 14 16 17 17
5 5 5 2 3 3 3 6 6 5 6 8 11 11 11 11 4 2 4 2 3 6 8 8 6 2 5 6 6 6 8 11 10 9 11 11 11 11 10 10 10 10 10 12 12 12 10 9 11 11 11 11 11 11 11 11 10 10 10 10 9 9 9 9 9 8 8 7 7 7 7 7 7 6 5 5 5 5 6 6 6 6 6 8 10 11 11 12 13 13 12 13 13 14 16 17 17
6 6 4 2 2 3 5 6 6 7 7 9 12 14 16 16 9 3 4 4 6 6 9 12 9 4 5 6 8 7 9 11 9 9 11 13 13 12 12 11 12 11 11 12 13 12 11 10 12 12 12 12 11 12 12 12 11 11 10 10 10 10 10 9 9 9 9 8 8 8 8 8 8 7 7 6 5 5 5 5 5 5 6 7 9 10 11 12 13 13 12 13 14 15 16 17 17
7 9 4 2 3 4 6 7 7 6 7 11 11 16 19 11 4 3 6 5 7 7 6 12 10 9 7 6 7 6 9 9 8 8 9 11 11 11 12 12 14 13 12 14 14 13 11 12 13 12 12 12 12 13 13 13 12 12 11 11 10 10 10 10 10 9 9 9 8 8 8 8 8 8 8 7 6 6 5 5 5 5 6 7 9 10 10 11 12 12 12 13 13 15 16 17 17
7 11 7 2 4 5 5 6 7 6 8 9 11 18 15 4 5 6 7 7 9 7 6 10 6 10 10 8 10 10 11 10 10 10 7 8 7 8 10 11 14 14 13 14 15 14 12 13 13 13 13 13 13 13 14 14 13 12 12 11 11 10 10 10 10 10 10 9 9 9 9 9 9 8 8 7 6 6 5 5 5 5 5 7 8 10 10 10 12 12 12 12 13 14 16 16 17
5 5 5 3 4 5 6 7 7 8 9 9 10 12 4 1 5 5 7 8 9 10 9 11 5 6 7 5 9 12 14 14 13 9 6 5 4 5 7 9 13 14 13 14 16 15 14 14 14 14 14 14 14 14 15 15 15 13 12 11 11 11 11 11 10 10 10 10 10 9 9 9 9 9 9 8 7 6 5 5 5 5 5 6 8 9 9 10 11 11 11 11 12 14 15 16 17
5 3 3 4 5 5 6 7 7 7 8 9 8 4 4 1 4 4 7 8 9 10 7 13 8 3 4 5 7 9 11 14 12 9 5 3 3 4 6 7 10 13 12 13 16 16 15 15 15 15 15 15 15 15 15 16 15 14 13 12 12 12 11 11 11 11 11 10 10 10 10 10 10 9 9 8 7 6 5 5 5 5 5 6 8 9 9 9 10 10 10 10 12 13 14 15 16
7 6 4 3 5 5 6 6 6 7 6 7 5 3 3 1 3 5 6 7 9 5 1 9 8 2 4 7 8 9 13 14 12 10 5 4 5 6 7 8 9 12 12 12 15 17 17 17 17 16 16 16 16 16 16 16 16 15 14 13 12 12 12 12 12 11 11 11 11 11 10 10 10 9 9 8 7 7 6 5 4 5 5 6 8 8 8 9 9 9 9 9 11 12 13 13 15
11 8 5 4 5 6 6 5 6 7 5 7 5 2 1 4 5 6 5 6 4 2 0 6 8 3 3 5 4 4 11 13 12 12 7 7 9 9 10 11 10 12 13 12 15 17 18 18 17 17 16 17 16 16 16 16 17 16 15 14 13 13 13 13 12 12 12 11 11 11 11 10 10 9 9 8 8 7 6 5 4 5 5 6 8 8 8 9 9 9 9 9 10 11 12 13 15
14 9 3 5 7 7 5 5 6 6 4 7 5 0 2 5 4 6 6 8 6 6 7 6 9 7 8 9 7 5 6 9 11 13 12 12 14 14 14 14 14 14 14 14 15 17 17 17 17 17 17 17 17 17 17 17 17 17 17 15 15 15 14 14 13 12 12 11 11 11 11 10 10 9 9 8 8 7 6 5 4 5 5 6 8 8 8 8 9 9 8 8 9 10 11 12 14
14 8 3 5 7 7 6 5 5 5 5 6 6 3 2 4 3 6 7 9 12 12 12 11 11 14 17 18 16 15 13 12 14 18 20 19 20 19 18 18 18 17 16 15 16 17 18 18 17 17 17 17 18 18 18 18 18 19 18 17 16 16 15 15 13 13 12 12 11 11 11 11 10 9 9 8 8 7 7 5 5 5 5 6 7 8 8 8 8 8 8 6 8 9 9 11 13
10 6 5 6 6 7 6 6 7 6 7 7 4 2 2 4 5 6 6 9 13 14 16 16 16 19 24 23 22 22 22 22 25 27 26 25 25 24 23 22 22 21 19 17 17 18 18 18 18 18 18 17 18 19 19 19 18 19 20 19 18 17 16 16 14 13 13 12 11 11 11 11 10 9 9 8 8 7 7 6 5 5 5 6 7 7 7 8 8 8 8 6 6 7 8 10 11
9 4 5 8 6 6 6 7 9 9 10 11 11 9 8 8 7 6 7 9 11 12 13 16 19 22 24 25 24 25 26 26 29 31 29 27 26 26 25 25 24 23 22 20 19 20 19 18 19 19 19 19 20 20 20 20 19 19 20 20 19 18 17 16 15 14 13 12 11 11 11 11 11 10 9 8 8 7 7 6 6 6 5 5 6 7 7 8 8 7 7 5 5 6 8 10 11
10 7 5 7 7 8 9 9 11 13 14 13 14 16 15 13 12 11 10 12 12 11 11 13 20 23 23 25 25 27 28 27 27 28 27 25 23 23 23 23 23 23 23 22 22 22 22 21 20 19 20 22 22 22 21 21 21 19 20 21 21 19 18 17 16 15 14 13 12 11 12 12 10 10 8 8 8 7 7 7 6 6 6 5 6 7 7 7 7 7 7 4 5 6 7 9 11
9 9 6 7 8 9 11 13 15 17 15 14 15 15 14 16 18 17 13 12 11 11 15 18 23 24 22 22 19 20 25 27 28 27 26 24 22 22 23 23 24 25 25 25 26 25 24 23 22 21 21 23 24 24 23 22 22 20 20 22 22 20 19 18 17 16 15 14 13 12 12 11 9 9 9 8 8 8 7 7 7 6 6 5 5 7 7 6 7 7 6 4 5 5 7 9 10
6 8 11 12 11 8 9 12 14 14 12 11 12 11 13 17 19 19 16 13 10 13 20 23 24 24 22 23 21 18 21 24 25 26 25 25 25 26 27 28 28 28 28 29 29 28 26 25 24 23 23 24 25 26 25 23 23 22 21 22 22 21 20 19 18 17 16 15 13 12 12 11 9 10 9 8 9 8 8 8 7 7 6 5 5 7 6 6 7 5 6 5 4 5 6 9 9
6 7 13 14 12 10 12 14 14 12 10 10 11 13 17 17 17 20 20 20 20 24 27 26 26 26 25 28 28 27 27 26 25 24 25 27 28 30 31 31 31 30 30 31 31 30 29 28 26 25 25 26 26 26 27 26 24 23 23 23 23 22 21 20 18 18 17 15 14 13 12 11 10 10 10 9 9 9 9 8 8 7 6 5 5 7 6 6 6 4 7 6 5 6 6 7 8
8 7 9 12 14 15 17 18 18 14 11 14 16 17 18 16 17 20 23 26 29 33 33 30 29 29 29 30 31 33 34 33 30 28 29 29 29 30 31 31 30 29 29 31 31 31 31 30 27 25 25 26 27 27 28 28 26 25 24 24 24 23 22 21 19 18 18 16 15 14 13 11 11 10 10 10 10 10 9 8 8 8 7 5 5 6 6 7 6 4 6 6 6 6 6 7 7
8 9 9 12 16 18 18 17 18 16 16 18 17 17 20 22 21 22 28 33 37 38 35 33 32 32 32 32 34 35 35 33 31 31 32 31 31 32 33 32 31 29 30 30 30 31 31 28 27 26 26 27 28 28 29 29 28 27 26 26 25 23 23 22 20 19 19 17 15 14 13 12 11 11 10 10 10 10 9 9 9 8 7 6 5 6 6 7 7 5 6 6 6 5 5 6 6
6 12 13 12 15 18 17 16 18 19 19 16 13 16 21 23 21 22 32 38 39 35 32 32 30 30 30 30 33 34 32 30 30 31 31 32 32 32 34 35 34 32 31 29 27 28 28 27 27 27 27 26 28 29 30 30 30 29 28 27 25 24 23 22 21 21 20 18 16 15 14 13 12 11 10 10 11 11 10 10 10 9 8 6 6 7 7 8 8 7 7 7 6 6 5 6 5
5 9 11 12 14 17 17 17 17 17 17 16 14 14 19 22 15 14 27 35 31 24 24 26 22 22 25 26 28 28 28 28 29 28 29 31 30 29 30 31 32 30 28 26 25 26 27 29 30 29 27 26 28 30 31 30 31 31 29 27 26 25 24 23 23 22 21 19 18 16 14 14 13 12 10 11 11 11 11 11 11 10 8 7 7 7 7 8 9 8 8 8 8 7 5 5 4
10 9 9 11 13 17 18 17 17 14 12 16 15 12 17 19 12 18 34 40 30 21 21 22 19 20 22 23 25 25 26 26 27 28 29 30 30 30 28 26 26 25 24 25 25 26 28 30 30 29 27 26 27 30 32 31 32 32 30 28 27 26 24 24 23 23 22 20 19 17 15 14 14 12 11 11 12 12 12 12 11 10 9 8 7 7 7 8 10 9 7 7 7 6 3 3 4
9 7 6 9 11 14 17 17 19 15 8 9 5 8 15 13 15 30 38 38 31 23 23 23 21 22 22 24 25 25 26 25 25 27 27 26 27 28 28 26 25 25 25 24 23 25 27 28 28 26 25 26 26 29 32 32 32 33 31 29 28 27 25 25 24 23 22 21 21 18 15 15 14 13 12 12 13 13 13 12 12 11 10 8 7 7 7 8 10 9 7 7 6 5 2 2 3
5 5 4 7 7 8 15 17 17 13 8 7 4 4 11 6 14 29 29 27 25 19 21 22 21 21 22 23 24 25 26 25 25 26 25 23 23 25 26 25 25 26 24 20 20 21 23 24 24 24 24 24 25 28 31 32 33 33 33 31 28 28 27 26 24 23 23 22 22 19 16 16 15 14 13 13 13 13 13 13 12 12 10 9 7 7 7 8 10 9 8 7 5 4 1 2 2
2 5 4 4 4 4 7 6 10 8 6 9 6 4 9 6 13 23 20 16 15 12 14 17 18 20 22 23 23 24 25 25 26 26 26 25 23 24 25 25 25 26 23 20 20 19 20 23 24 24 22 21 22 25 30 32 33 33 33 32 29 29 28 26 25 24 23 23 22 20 17 16 15 15 14 13 14 14 14 13 13 12 11 10 8 8 8 9 9 9 9 7 5 4 2 2 2
2 3 4 4 4 4 3 3 9 6 3 10 9 4 9 9 12 13 6 3 6 10 13 16 19 21 23 25 25 26 26 26 26 26 27 26 25 24 25 25 25 26 25 24 24 23 22 24 26 26 24 23 22 23 27 31 33 33 34 32 30 29 29 28 26 24 24 23 23 21 18 17 16 16 15 14 15 15 14 14 14 13 11 10 10 8 8 9 9 9 9 8 7 4 2 2 2
3 4 5 4 4 5 2 1 4 3 2 9 10 5 7 7 9 10 9 11 14 15 17 19 22 24 25 27 28 28 27 26 26 26 26 26 25 25 25 26 25 26 27 27 27 27 25 25 28 30 30 31 29 27 26 30 33 34 34 33 31 30 29 29 26 25 24 24 24 22 20 18 17 16 16 14 15 15 15 15 15 14 12 12 11 9 9 9 9 9 9 8 8 5 3 3 2
4 4 4 5 6 6 3 1 2 4 4 7 9 8 9 11 15 20 24 25 24 22 22 23 23 25 26 27 27 26 26 25 24 23 23 23 24 25 25 25 25 25 26 28 28 27 26 27 29 31 33 34 34 32 29 30 32 34 34 33 32 31 30 29 28 26 26 25 25 23 21 19 18 17 16 15 15 16 15 16 16 14 13 13 12 10 10 10 9 10 9 8 9 7 4 4 3
2 2 3 5 6 6 5 1 2 6 6 6 7 8 11 14 16 20 24 24 22 23 23 22 23 24 25 26 26 26 26 24 21 19 18 18 19 21 23 23 24 23 24 25 26 26 27 29 30 32 34 34 34 33 31 30 32 34 34 33 32 32 31 31 30 28 27 26 25 24 22 20 19 18 17 16 16 16 16 17 16 15 15 14 13 12 12 11 10 10 9 8 9 8 5 4 4
6 4 2 5 5 5 6 2 2 4 4 6 8 9 11 14 16 17 19 20 21 24 24 22 23 25 25 26 25 25 24 21 17 15 15 17 19 20 22 23 24 24 23 24 25 25 26 28 29 30 30 30 31 33 33 32 33 35 35 34 35 35 34 33 32 30 28 27 26 25 23 21 20 19 18 17 17 17 17 18 17 16 16 15 14 13 12 11 11 11 10 9 9 9 7 5 5
8 6 4 6 5 6 7 2 2 1 2 5 6 9 12 14 15 15 17 18 17 19 19 20 24 25 25 24 24 22 19 15 13 13 14 16 19 20 22 23 24 23 22 21 22 22 23 25 26 26 25 26 28 32 34 35 35 36 37 37 38 38 36 35 34 32 30 29 27 26 25 22 21 20 19 18 18 18 18 18 18 17 17 17 15 14 13 12 12 12 11 10 10 10 8 7 7
8 6 5 6 5 7 6 0 1 2 1 4 6 9 13 13 13 15 17 15 15 17 14 16 23 24 22 20 20 19 13 11 11 11 11 10 11 14 15 17 18 18 17 17 17 18 19 21 22 22 22 23 25 28 32 34 35 36 37 38 39 39 38 36 35 34 32 30 28 27 26 23 22 21 20 19 18 19 19 19 19 18 18 18 16 15 15 14 13 12 12 10 11 11 9 9 9
5 5 5 5 5 6 4 3 1 2 1 4 6 9 14 16 15 16 16 13 17 23 21 21 24 20 16 12 10 10 7 8 7 6 7 6 5 7 9 11 13 14 14 14 14 14 15 17 18 19 19 20 21 24 28 32 34 34 35 37 38 38 37 35 34 33 32 30 28 28 27 25 23 22 21 20 19 20 20 20 20 19 19 19 18 17 17 16 14 13 12 11 12 12 11 11 10
4 4 4 5 5 4 3 2 2 1 4 5 6 8 12 14 14 13 15 14 18 25 26 27 24 14 10 7 6 6 6 7 4 2 5 6 6 7 7 8 9 11 12 11 11 11 12 13 15 16 17 18 18 21 25 29 31 32 34 35 35 36 35 34 34 34 33 31 29 28 28 27 25 23 22 21 20 20 20 20 20 20 20 20 19 19 18 16 15 14 13 13 13 13 12 11 11
5 7 6 6 5 4 3 3 5 4 4 4 4 7 8 7 8 8 9 10 13 17 19 21 21 14 8 8 9 9 8 6 4 3 5 7 9 11 11 10 8 9 10 10 9 10 11 11 13 15 16 17 17 19 24 28 30 32 33 34 34 34 34 34 35 36 35 33 31 30 29 29 26 24 23 21 21 21 21 21 21 20 21 21 21 21 19 17 16 15 13 14 14 14 12 11 11
4 6 6 4 4 4 4 5 5 5 3 1 3 4 6 4 7 11 10 7 7 9 11 12 14 9 4 3 4 5 5 3 2 5 7 9 10 11 12 11 9 9 10 10 9 10 11 12 13 15 16 17 17 18 22 27 30 32 35 36 37 37 38 38 38 38 37 35 33 31 30 29 27 25 24 22 22 22 21 21 21 21 21 22 22 21 20 19 18 16 15 15 15 14 14 13 13
3 3 2 2 2 2 3 4 2 2 3 2 3 1 6 7 8 13 11 7 8 7 7 4 2 2 4 3 6 7 3 1 5 8 8 10 10 10 11 11 10 9 10 10 10 10 12 13 14 14 15 16 17 17 20 25 29 31 34 36 38 39 39 39 38 37 36 35 32 30 30 29 28 26 25 24 23 22 22 22 22 22 22 22 22 22 22 21 19 18 16 16 16 15 15 16 14
3 3 3 3 1 1 2 2 1 2 4 3 4 4 4 7 8 13 10 7 9 6 5 4 4 4 6 8 7 4 1 5 7 8 8 9 10 10 10 11 10 9 8 9 9 11 12 12 13 13 14 15 16 17 18 22 27 30 32 34 36 37 37 37 36 35 35 34 32 31 30 30 29 27 26 24 24 23 23 23 23 23 23 23 23 23 23 22 21 19 18 17 17 17 17 17 16
1 2 3 2 1 2 2 1 2 4 4 4 4 4 2 6 8 13 9 6 8 4 8 6 4 7 10 10 6 2 2 5 7 8 9 10 10 10 9 9 9 7 7 8 9 9 10 10 11 11 12 13 15 16 16 19 23 27 30 32 33 34 34 34 34 34 34 33 32 31 30 30 29 28 27 25 25 24 24 24 23 23 24 23 23 24 24 24 23 21 20 19 18 18 18 18 18
1 2 3 2 1 2 1 0 2 2 1 6 7 5 3 5 7 10 7 6 6 5 8 6 8 13 13 8 3 1 2 5 7 8 9 9 8 7 7 6 5 5 6 7 7 7 7 7 7 7 9 11 12 13 14 16 20 24 27 29 31 32 33 34 34 34 34 34 33 32 31 30 30 29 28 27 26 25 25 25 24 24 24 24 24 24 25 26 25 24 22 20 20 19 19 19 19
1 3 3 3 3 2 0 1 1 2 3 7 7 6 4 2 6 7 4 2 1 4 5 6 8 12 11 6 3 1 2 4 5 6 6 6 6 4 4 3 3 3 5 5 4 4 4 4 5 5 6 8 9 10 11 13 16 21 25 27 30 31 32 33 35 35 35 34 34 34 32 31 30 29 28 27 27 26 26 26 25 24 24 25 25 25 26 26 26 25 24 22 21 21 20 20 20
1 2 2 2 1 1 1 1 1 0 4 5 3 3 4 3 6 6 4 1 5 3 2 5 7 8 8 4 2 1 2 3 4 5 5 5 6 5 4 4 3 3 3 3 3 2 2 3 3 3 4 6 7 8 9 11 14 18 22 25 28 30 32 33 34 34 34 34 34 34 34 31 30 29 29 29 28 28 27 27 26 25 25 26 27 27 26 26 27 26 25 24 23 22 21 22 22
1 1 0 1 1 1 1 0 1 3 4 4 1 1 1 6 8 9 11 11 7 4 2 2 6 7 5 3 2 3 4 6 6 6 7 7 7 7 6 6 6 6 6 6 4 3 2 2 3 3 3 4 5 6 8 10 13 16 20 23 25 28 30 31 32 33 33 33 33 34 34 33 30 30 30 30 30 29 28 27 26 26 26 26 27 27 27 27 27 27 27 26 25 23 23 23 23
4 3 3 3 1 2 2 3 3 3 3 3 3 2 2 5 7 8 9 8 5 2 2 1 3 3 1 0 3 5 6 8 8 9 10 10 9 9 8 8 8 8 8 8 8 6 5 3 3 3 3 3 4 4 6 10 13 15 18 21 23 26 28 29 30 31 32 32 32 33 32 32 31 29 29 30 30 29 28 27 26 26 25 26 26 27 27 27 27 28 28 27 26 25 24 24 24
5 4 3 2 1 2 3 2 2 2 1 2 2 1 3 4 4 5 5 6 6 4 3 4 3 2 3 6 7 7 7 9 11 12 13 12 11 10 10 10 10 9 9 8 8 8 7 5 3 3 3 4 5 5 6 9 12 15 17 20 22 24 25 27 28 29 30 31 31 31 31 31 31 29 28 29 29 29 28 27 27 26 26 26 26 26 27 27 27 28 28 28 28 27 27 26 26
4 1 3 1 2 2 1 1 1 0 1 1 1 3 5 5 6 9 9 8 4 1 0 3 3 3 7 9 8 8 9 10 11 11 12 14 13 11 9 9 10 11 11 10 9 8 8 8 6 6 6 6 6 6 7 8 10 13 15 17 20 22 23 25 26 28 29 30 30 30 30 31 30 30 28 28 29 29 29 28 27 27 26 26 26 26 27 27 27 28 29 29 29 28 28 29 27
1 2 1 4 2 1 1 1 1 3 0 3 4 4 5 4 7 10 6 2 1 1 1 2 5 6 7 9 9 10 11 10 8 8 10 14 17 14 12 12 13 13 13 12 11 10 10 11 10 9 8 8 8 7 8 9 10 11 13 15 17 19 21 23 24 25 27 28 29 30 30 31 31 30 29 28 29 29 29 29 29 27 26 26 26 26 27 27 27 28 28 29 29 29 30 30 29
2 2 3 3 2 1 1 1 2 1 3 4 5 6 6 2 4 5 0 1 4 5 3 3 6 8 8 9 12 11 11 9 5 5 9 14 19 18 15 15 15 15 15 13 12 12 12 12 13 12 11 10 10 9 9 10 10 11 12 13 15 17 19 21 23 24 26 27 29 30 31 32 31 31 30 29 29 30 30 30 30 29 28 28 28 27 27 27 28 28 29 29 29 30 31 32 31
2 2 2 1 1 1 1 2 2 2 3 3 4 7 5 4 4 4 3 5 7 7 7 6 6 8 10 13 14 13 12 9 3 3 8 16 20 20 17 16 17 17 17 15 13 14 14 14 14 15 14 13 12 12 11 11 11 11 12 13 14 16 18 21 23 24 26 28 29 30 31 32 32 31 31 30 30 31 31 32 32 31 30 30 30 29 29 29 29 30 30 30 30 30 32 34 34
2 3 2 0 1 2 3 2 1 2 2 3 5 6 4 5 6 6 8 8 6 5 7 8 8 9 13 17 17 15 14 10 3 2 11 20 23 21 18 17 19 19 18 17 16 16 17 17 18 18 18 18 17 16 15 14 13 13 13 13 14 16 18 20 22 24 26 28 29 30 31 32 32 32 32 31 31 31 32 33 33 32 32 32 32 31 31 31 31 32 32 32 31 31 33 35 35
2 1 2 2 1 1 1 2 1 3 1 2 3 5 6 5 4 6 8 6 5 3 3 6 8 13 16 17 17 16 13 9 5 8 17 24 24 22 19 18 20 20 19 18 18 18 19 20 21 21 21 21 21 20 19 18 17 16 16 16 16 17 18 19 20 22 24 26 28 30 31 31 32 32 33 33 32 32 32 32 33 33 33 33 33 33 33 32 32 33 33 33 33 33 34 35 35
6 6 6 5 4 3 1 3 3 2 2 2 2 5 8 5 4 6 7 4 2 2 1 2 4 12 15 15 15 15 12 9 8 14 22 26 25 24 21 20 20 19 17 16 16 18 19 20 21 22 23 24 23 22 22 21 21 21 21 21 21 21 21 21 22 23 24 25 26 28 29 31 31 32 32 33 33 32 32 32 32 33 34 34 34 34 34 34 34 34 35 35 35 35 35 36 36
Wind_Direction
321 331 332 327 329 323 304 273 257 239 215 251 251 262 260 245 357 333 280 278 133 53 42 29 345 316 280 282 293 307 295 275 284 292 184 190 133 135 210 264 216 233 237 227 219 217 219 221 225 227 232 236 237 237 242 248 254 261 266 268 269 276 284 290 296 302 307 315 324 327 322 320 322 325 331 331 332 332 333 333 332 333 332 331 331 329 327 326 329 328 331 334 332 333 329 329 331
320 322 334 330 324 314 291 266 240 277 245 252 252 246 250 199 142 253 307 50 95 78 44 28 282 248 250 272 281 300 300 276 274 276 157 194 213 241 250 248 243 247 246 238 226 222 223 223 227 231 234 237 239 238 241 246 252 258 262 263 263 269 275 281 289 295 303 310 318 321 316 312 312 320 328 329 329 329 330 330 329 329 330 330 328 327 329 328 329 332 336 338 335 336 332 337 341
323 320 329 337 323 279 273 286 247 262 259 258 257 253 244 173 245 72 79 78 91 68 41 29 299 241 229 252 257 253 260 286 285 264 284 251 258 266 253 253 252 245 247 244 234 231 227 225 229 233 237 239 240 240 242 246 249 255 260 260 261 266 269 274 281 288 298 305 313 315 309 301 298 309 319 324 324 325 327 326 325 326 328 329 327 329 331 328 329 334 338 341 340 343 344 348 348
324 323 325 338 322 276 253 267 236 251 256 259 274 280 270 107 324 77 92 85 69 32 21 34 278 240 221 227 239 237 247 274 261 206 204 224 244 266 268 269 255 239 242 244 239 238 234 230 231 235 239 242 242 241 242 245 248 253 256 259 261 264 265 268 272 279 289 299 308 309 303 293 287 294 305 315 318 320 323 322 321 324 327 328 327 330 331 326 329 337 342 344 347 354 355 354 349
311 319 321 328 307 293 282 249 241 238 241 258 267 271 277 41 321 111 108 123 120 18 177 185 208 233 239 243 243 232 247 244 224 211 207 231 247 261 269 267 254 235 236 240 239 241 240 232 233 237 240 242 242 241 242 245 248 251 254 257 260 260 262 263 267 272 280 292 300 302 299 289 280 281 289 300 309 313 317 318 319 323 327 327 327 330 330 326 330 341 347 347 354 359 357 354 348
294 311 305 281 266 286 300 256 252 244 242 262 269 283 293 308 19 68 108 150 160 175 180 194 227 274 256 243 232 227 241 232 218 227 233 250 258 261 262 259 252 234 230 237 241 247 248 234 232 237 239 242 242 241 243 245 247 250 254 255 257 256 257 260 263 269 274 284 291 296 294 286 278 274 279 286 300 306 312 315 317 323 326 326 328 329 327 326 330 343 352 353 358 358 356 353 349
282 304 281 232 251 260 258 249 256 260 257 259 265 268 274 286 68 71 335 139 141 174 186 200 208 266 278 234 227 234 232 236 244 248 256 263 261 260 258 256 252 233 229 237 243 251 253 235 230 236 239 242 241 241 242 244 246 248 252 254 255 254 254 257 260 266 270 278 284 289 287 281 275 269 271 278 291 299 306 313 315 322 325 326 328 326 324 326 331 341 354 358 358 357 358 356 353
249 267 251 211 255 237 237 253 248 255 263 268 270 269 276 289 324 27 311 302 186 185 178 195 180 190 268 219 224 248 219 235 250 250 259 263 260 259 258 258 253 238 231 236 242 250 250 233 231 238 241 243 241 240 241 241 244 247 251 253 253 253 253 255 257 263 267 274 280 283 282 277 271 266 266 268 281 291 301 310 313 320 324 325 325 323 321 327 331 337 351 359 359 1 1 359 358
215 222 234 229 242 249 255 260 254 250 255 262 266 275 281 281 291 313 288 275 258 238 182 184 175 183 278 229 232 244 222 239 252 255 258 257 257 257 258 258 255 245 235 237 243 247 244 234 235 242 242 244 243 239 239 238 241 245 250 252 253 253 253 255 257 261 265 271 277 280 281 275 269 264 262 263 271 282 296 307 312 315 321 323 321 320 320 326 330 334 348 357 0 3 2 1 1
212 213 226 238 218 244 251 257 263 251 246 255 257 262 268 270 288 274 266 268 268 280 159 164 182 212 273 277 255 234 223 234 240 262 261 254 255 253 257 257 257 252 241 242 245 245 239 233 237 242 242 243 243 240 238 237 239 243 248 252 254 254 255 256 257 261 266 271 277 281 281 277 269 262 261 261 266 276 291 302 308 312 316 319 317 318 319 324 330 335 346 353 359 2 4 6 5
215 205 213 253 230 237 244 256 261 264 261 260 260 259 260 276 295 275 269 271 264 270 148 150 186 224 249 270 261 248 242 244 251 266 255 248 251 247 255 253 257 257 248 246 248 247 236 232 237 241 244 243 243 241 238 237 238 241 247 251 254 255 256 257 259 262 267 273 278 281 281 279 272 262 260 261 266 274 286 299 304 307 312 314 313 316 318 323 330 339 345 351 359 2 6 8 6
231 191 199 226 230 239 243 255 261 274 279 270 270 273 282 222 254 260 265 271 263 261 208 188 185 208 230 251 251 246 241 240 249 252 228 237 248 248 260 252 256 262 255 248 250 249 238 235 240 245 248 246 244 242 239 238 239 242 246 250 254 256 256 258 259 263 267 273 277 279 280 279 274 265 261 261 266 273 283 295 300 303 307 309 309 313 319 320 329 341 345 352 0 2 9 10 7
239 206 220 230 231 244 242 251 264 272 282 276 276 324 30 200 241 273 278 283 270 274 232 201 192 173 238 271 264 240 218 223 234 228 211 247 267 268 275 264 257 263 260 250 250 251 245 241 244 251 253 252 248 244 242 239 240 243 247 250 255 257 257 257 258 262 265 270 274 277 277 276 275 269 265 263 266 273 280 290 295 299 301 304 305 311 319 318 326 340 343 353 1 3 10 11 11
241 223 226 261 245 240 242 247 257 259 266 273 289 29 37 311 282 294 296 292 275 289 132 188 190 159 246 259 263 233 205 215 226 217 227 282 288 285 281 280 265 261 262 252 251 252 252 248 248 253 254 254 251 247 245 242 242 243 246 251 255 258 258 256 256 259 262 268 272 274 276 276 275 273 269 266 266 271 275 284 289 292 296 299 302 310 317 316 324 336 340 352 0 4 7 9 14
239 245 227 249 257 245 242 240 249 253 256 272 300 43 304 277 263 264 265 264 279 337 71 184 179 168 245 257 277 224 205 218 217 212 246 289 287 287 281 282 273 261 260 251 249 252 255 254 253 253 253 253 251 250 248 245 244 243 245 248 253 257 257 257 255 257 261 267 271 273 275 275 276 274 270 267 266 268 271 280 284 285 291 294 299 310 315 315 322 328 335 347 358 4 360 3 15
227 261 260 223 244 242 235 241 254 252 257 268 267 123 283 281 241 235 244 243 258 276 276 235 204 222 255 264 282 289 233 220 215 225 259 282 281 284 279 278 275 263 258 250 248 251 253 256 256 254 252 252 252 252 250 247 245 243 243 245 250 253 256 257 256 257 261 266 271 273 275 275 275 273 268 266 264 265 269 273 279 280 282 289 297 308 313 314 320 322 327 342 359 0 354 5 19
213 243 263 225 232 230 229 235 246 253 265 255 218 176 290 304 252 240 248 247 255 264 266 258 242 247 256 260 263 269 266 252 249 253 262 272 275 276 273 273 272 264 256 250 251 253 254 254 255 255 253 251 251 253 252 248 244 242 241 242 245 250 254 256 255 255 259 265 269 271 274 274 273 269 264 261 259 260 264 266 269 270 274 284 294 305 311 313 319 319 321 340 2 355 353 13 22
199 222 234 229 229 226 231 238 250 265 271 268 239 190 244 284 274 252 252 247 250 254 255 256 252 252 258 265 265 260 260 261 262 262 261 266 269 269 270 269 268 265 259 253 253 257 258 256 254 253 253 251 250 251 252 249 245 242 241 241 243 246 251 254 255 253 256 261 265 268 269 271 270 267 259 254 254 252 255 259 259 259 265 277 289 301 307 310 316 316 316 335 6 357 0 20 23
202 221 228 230 232 233 239 251 261 270 279 292 301 299 287 287 288 275 276 265 258 256 254 258 256 253 254 260 261 254 253 260 261 261 261 264 266 267 268 266 264 263 258 256 258 262 263 260 256 254 253 251 250 249 250 250 247 242 240 241 241 244 248 252 253 251 253 256 258 262 262 264 265 264 259 252 250 248 247 250 249 251 257 269 284 295 301 308 313 313 311 329 11 9 11 22 22
209 217 232 236 236 251 257 265 265 270 284 291 294 296 291 294 293 275 273 275 267 257 254 259 258 257 255 256 257 250 248 255 259 259 260 260 264 265 264 263 263 262 261 264 266 265 264 262 260 257 254 251 250 248 248 248 249 244 241 241 241 243 246 250 252 250 251 252 253 254 258 263 265 265 262 256 253 248 245 244 244 245 251 266 278 287 296 302 307 309 307 332 18 14 15 20 19
202 209 235 241 235 252 257 265 266 266 279 283 283 290 288 291 288 271 264 268 261 249 249 249 253 259 261 263 267 258 250 251 253 255 257 256 259 261 261 262 266 268 269 269 267 264 263 263 261 257 253 250 248 248 247 246 248 247 241 241 243 243 244 248 250 250 250 250 251 251 256 263 267 267 262 257 255 249 246 244 244 245 249 261 273 282 289 296 304 313 313 347 15 360 12 16 13
215 221 234 241 243 256 260 264 266 265 275 284 284 281 282 287 280 268 262 258 253 254 254 252 257 266 271 274 281 281 266 258 255 253 254 254 257 261 263 264 265 267 267 266 266 266 266 265 263 257 253 250 248 248 248 247 246 246 242 241 244 244 244 245 247 249 250 249 251 252 255 262 263 263 261 253 249 245 242 239 241 246 250 258 266 278 289 298 303 313 308 331 351 331 5 13 7
225 243 237 244 252 259 268 269 269 271 271 271 270 274 283 287 278 269 261 256 260 262 261 262 266 270 273 273 274 274 268 264 262 259 258 257 260 263 265 265 264 262 261 263 266 267 267 265 263 258 251 249 247 246 246 246 245 245 243 241 243 245 245 245 245 247 250 249 250 252 254 258 257 257 258 251 245 241 237 235 238 243 251 260 268 277 287 291 294 304 297 312 335 325 358 9 4
210 256 252 254 257 251 254 258 261 263 258 259 267 277 280 274 274 273 263 260 263 264 264 266 268 270 268 266 266 266 263 261 259 259 260 259 263 267 268 268 266 263 258 258 260 262 265 265 263 259 252 247 246 244 244 244 243 243 242 241 240 242 245 246 247 247 249 249 247 250 252 253 253 252 252 248 244 240 235 232 235 240 248 259 267 275 279 280 284 292 292 314 330 324 354 2 3
207 253 259 260 262 258 256 255 257 259 259 265 269 270 264 261 271 275 267 266 266 264 267 268 268 268 266 265 264 264 262 260 258 255 255 254 258 263 263 263 263 261 256 254 254 257 261 262 261 260 256 249 244 242 243 242 242 241 240 240 239 239 243 246 247 247 248 248 245 246 249 251 251 250 249 246 241 238 234 230 232 238 244 251 259 268 269 271 276 267 275 302 317 327 356 353 2
212 239 246 252 256 259 259 252 252 255 258 262 263 261 260 264 271 271 265 266 268 267 268 269 268 265 264 264 264 264 262 260 258 254 252 253 255 255 253 254 255 256 257 256 252 252 255 257 259 261 260 254 245 240 240 240 239 239 239 239 238 238 241 244 245 246 247 248 246 243 245 247 249 249 247 244 239 235 231 228 231 235 240 247 251 259 263 266 266 257 266 289 312 339 348 339 0
257 256 261 268 269 268 263 257 255 253 256 252 248 257 263 264 265 266 264 266 268 266 266 267 264 262 262 262 263 262 260 257 255 252 251 251 252 253 250 248 249 252 253 251 248 250 253 257 261 262 261 256 248 241 238 237 238 238 238 238 237 236 238 241 243 244 245 246 246 242 241 244 246 247 245 241 237 233 229 227 230 234 238 244 246 255 260 262 264 264 273 289 309 324 323 324 354
275 290 293 284 281 274 264 262 258 249 255 248 246 266 267 261 251 252 265 272 270 260 262 263 258 260 262 262 262 261 258 254 252 249 249 249 250 253 254 251 248 248 248 250 253 255 256 259 260 259 257 255 249 242 237 235 236 236 236 236 236 235 236 239 241 242 242 243 245 242 238 241 244 244 243 239 235 231 227 225 229 233 236 242 246 253 255 258 265 268 273 283 292 295 293 314 339
276 289 296 285 280 269 254 247 241 235 237 233 246 294 267 246 232 246 261 273 273 261 258 260 259 262 264 262 261 260 261 258 253 250 250 252 253 253 255 256 253 252 254 256 255 253 254 255 254 253 252 251 248 242 238 235 235 235 235 234 234 234 234 236 238 241 241 240 243 243 237 238 240 241 239 237 234 230 226 225 228 232 236 242 245 248 251 255 263 267 269 272 275 275 281 302 321
270 263 254 278 285 268 247 235 222 219 209 179 125 299 262 235 234 252 265 270 267 259 254 256 257 259 261 261 257 256 259 260 257 256 259 261 261 259 259 260 258 259 259 252 246 248 252 250 247 246 246 247 245 242 238 235 235 235 234 233 232 233 233 234 237 239 239 238 241 243 236 235 237 238 237 234 233 229 226 225 227 232 235 241 244 244 247 252 259 266 267 268 271 271 279 285 309
258 263 231 241 263 274 254 207 170 187 201 170 154 248 265 289 274 273 280 265 253 252 252 254 255 258 261 261 257 256 258 259 259 259 261 263 264 262 260 260 260 261 255 245 247 253 253 247 242 240 240 243 245 243 239 236 235 235 234 232 230 231 232 233 235 237 237 237 240 241 236 234 235 236 236 232 231 230 226 224 227 232 234 238 242 240 243 250 256 262 265 268 270 267 256 258 279
220 244 250 218 217 262 287 138 157 180 195 173 174 247 266 273 283 284 289 260 251 253 252 251 254 259 262 262 260 259 259 260 261 260 261 262 264 262 260 260 258 258 253 250 256 258 254 247 242 241 242 246 249 248 244 239 236 235 235 233 231 231 231 232 234 236 237 236 238 239 236 234 233 234 235 231 230 230 227 223 226 230 232 235 239 239 240 246 250 254 261 268 268 261 241 242 239
212 201 260 250 216 241 243 183 207 194 147 185 199 256 281 272 287 293 295 300 290 274 265 259 260 262 262 262 259 257 257 258 258 258 259 260 262 264 264 263 258 256 255 256 259 259 257 251 246 246 248 252 252 252 248 242 237 235 234 233 231 230 230 231 233 236 236 235 237 238 235 233 233 234 234 232 230 230 227 225 226 228 230 234 237 238 238 242 247 248 254 261 265 265 250 243 216
234 202 239 261 250 249 241 336 246 198 198 214 214 236 262 270 279 282 281 285 282 274 271 268 266 265 263 262 259 257 257 258 258 258 258 258 259 261 263 262 256 252 253 256 258 259 259 256 252 250 249 250 249 248 247 243 237 234 233 232 231 231 230 231 233 235 236 234 236 237 235 232 232 233 233 232 230 230 228 227 228 227 228 233 235 236 237 240 244 246 247 248 257 263 249 236 209
299 221 220 273 270 255 254 251 190 198 212 227 226 242 262 271 276 278 276 276 272 268 270 270 269 266 264 262 259 258 257 257 257 257 256 253 251 252 254 254 253 251 251 253 256 255 254 254 253 250 248 247 246 245 243 239 234 231 230 229 229 230 229 229 231 234 235 234 234 236 235 232 231 233 233 231 231 230 228 228 229 226 227 231 233 234 236 240 242 243 245 241 249 258 247 233 215
338 321 284 297 296 273 273 269 183 222 240 242 245 259 270 274 276 278 277 275 271 270 274 275 273 268 264 261 258 257 256 256 258 257 252 246 242 242 243 246 249 252 253 251 251 250 249 251 252 251 250 249 247 244 239 233 229 226 225 225 226 227 226 226 228 231 234 234 233 235 236 232 230 232 233 231 231 231 229 230 229 224 227 230 232 234 236 239 242 243 245 239 242 249 245 237 222
304 312 305 291 288 280 280 275 175 247 293 260 269 276 272 274 276 280 282 278 270 269 272 270 268 265 260 256 253 253 251 252 261 264 261 253 248 246 245 247 252 256 256 252 250 248 248 250 253 255 256 254 250 245 238 231 227 225 224 224 225 225 224 223 225 229 232 233 232 233 235 234 230 232 234 231 231 232 229 229 228 224 226 230 231 234 236 237 239 243 244 238 238 242 240 235 226
281 296 298 285 275 271 281 34 133 77 54 275 297 294 281 278 277 281 283 279 269 265 263 261 262 262 259 253 244 241 240 251 270 276 272 265 258 257 253 250 251 255 255 252 250 248 248 252 257 260 259 256 254 249 240 233 230 229 228 228 226 225 225 223 224 227 230 232 232 233 235 235 232 231 234 233 231 233 231 230 229 224 225 230 231 232 235 236 237 240 243 240 238 239 235 231 229
274 280 274 272 274 274 296 46 52 80 112 280 313 306 289 285 280 277 273 265 263 263 259 256 257 257 260 256 236 225 229 260 281 287 281 287 281 270 265 258 252 252 253 251 249 249 250 253 259 261 261 259 256 250 240 232 230 230 229 229 227 226 226 225 225 228 231 233 234 234 235 236 234 232 233 233 232 233 233 232 230 225 225 229 232 232 235 237 237 238 241 242 240 238 232 227 229
243 247 253 262 274 277 284 8 343 264 213 257 309 306 287 284 281 275 266 257 253 254 253 254 255 258 261 257 247 243 248 258 253 230 275 299 316 309 294 280 265 253 252 251 248 250 252 256 261 264 263 261 256 248 237 230 229 227 226 227 227 227 227 226 226 228 232 235 236 236 236 237 235 234 233 233 234 234 233 233 231 227 226 228 231 233 236 237 238 239 240 241 241 240 235 228 227
233 224 227 247 264 274 283 328 331 301 244 241 313 308 279 276 287 288 282 271 250 238 239 249 258 265 272 266 256 247 236 224 207 213 259 280 295 304 303 295 282 263 254 251 249 252 257 262 264 265 264 259 254 245 233 228 226 224 221 220 221 223 224 224 224 226 229 232 234 235 236 237 236 236 234 233 234 235 234 234 233 229 226 228 232 234 236 237 237 238 238 241 243 243 240 233 227
260 229 226 248 284 308 319 331 335 326 313 331 28 337 285 295 310 295 295 290 257 225 216 242 261 260 257 261 210 180 172 180 260 296 290 284 286 293 295 292 283 267 255 252 254 256 261 266 266 265 263 258 253 245 234 228 226 224 221 219 219 220 221 223 225 227 228 229 231 234 236 237 237 236 235 233 234 235 235 234 234 231 228 228 232 235 236 236 237 236 235 239 243 245 243 236 227
281 251 277 339 317 314 304 304 314 290 295 288 107 91 280 298 299 281 285 285 259 230 200 229 299 126 136 156 154 139 133 264 301 306 300 293 292 294 294 292 283 267 256 253 256 261 264 268 269 266 264 260 254 247 237 231 228 226 225 224 225 226 226 227 228 229 230 231 232 235 237 238 237 237 236 234 234 235 235 234 234 233 231 229 231 235 237 237 238 237 235 238 241 243 245 242 233
254 258 315 336 280 249 266 289 281 264 301 284 179 152 266 290 286 275 284 288 264 230 145 96 69 125 154 161 161 150 243 282 296 299 294 288 287 292 294 292 287 274 259 256 258 266 270 270 271 269 266 263 257 251 242 235 232 229 227 226 227 230 232 232 231 231 232 232 233 236 239 240 239 238 238 236 235 236 236 235 235 235 233 231 231 234 237 238 238 237 235 236 238 239 242 246 244
215 261 297 324 330 306 303 353 269 277 327 299 233 153 219 277 281 282 288 279 261 188 126 117 136 170 173 168 173 199 282 296 305 304 298 294 291 292 293 290 287 274 261 264 269 274 275 272 273 271 267 264 260 255 247 239 234 231 229 227 227 229 232 234 234 234 234 233 233 236 239 241 240 239 239 238 237 237 238 237 236 236 235 234 233 234 236 238 239 238 236 236 237 239 240 244 247
200 269 272 269 290 300 317 341 283 303 307 266 245 170 182 274 273 282 298 286 257 159 135 150 169 177 177 170 161 159 297 303 310 313 310 306 304 301 295 290 284 274 272 279 282 280 278 276 274 272 269 267 266 262 254 243 234 230 228 228 228 229 230 232 233 234 235 235 234 236 238 240 240 239 239 239 238 238 239 239 238 237 237 237 236 235 235 238 240 239 238 237 238 240 241 242 244
221 255 246 237 217 188 185 200 254 341 255 257 244 178 157 296 270 261 266 279 50 109 141 163 171 168 157 141 132 165 293 309 323 335 338 332 335 333 316 309 299 289 289 291 292 286 286 288 285 282 278 274 273 270 261 248 236 231 230 229 230 231 231 232 233 234 235 236 235 236 238 240 241 239 238 238 238 238 239 239 239 238 238 238 237 236 236 238 240 242 241 239 238 239 241 243 243
255 253 261 289 255 135 66 135 104 236 242 262 269 159 140 228 259 253 237 289 12 354 221 175 171 150 122 103 86 57 3 16 23 20 22 15 13 19 14 9 5 348 335 325 320 316 315 313 310 307 299 291 284 274 261 249 238 232 231 231 231 232 232 233 235 237 239 239 238 237 238 241 242 240 239 237 237 237 238 239 239 239 238 238 238 238 238 238 240 242 242 241 241 240 240 243 245
173 229 291 41 19 338 330 214 176 213 246 267 257 123 169 239 254 267 274 287 302 284 254 166 159 137 92 31 28 67 62 59 56 52 51 48 44 40 36 32 26 17 10 5 0 356 350 342 333 328 315 300 289 274 259 249 242 236 234 234 234 234 234 235 239 241 243 244 242 240 240 241 243 242 238 236 236 237 239 239 240 242 242 241 242 242 241 240 240 241 243 243 242 242 241 243 246
170 176 161 144 166 260 254 233 217 219 262 266 234 214 262 272 265 252 261 276 272 256 271 221 155 136 99 96 114 94 74 71 73 70 64 59 52 45 39 30 21 13 4 358 356 354 352 350 336 329 318 296 282 266 252 244 242 240 238 239 239 238 238 239 241 243 245 246 245 244 244 243 246 247 242 238 238 239 241 243 244 245 246 246 246 246 245 243 242 243 244 244 244 244 243 244 246
192 202 151 142 192 213 222 221 230 265 306 276 295 288 218 237 262 231 240 270 265 271 253 215 213 229 175 140 121 103 91 88 83 73 60 46 35 29 28 23 15 5 356 346 340 336 330 326 316 300 287 272 262 253 245 242 242 242 242 243 243 244 244 243 244 245 246 248 248 247 246 245 247 250 248 243 241 242 244 245 246 246 247 248 248 248 249 247 245 245 245 245 245 245 245 245 245
212 178 90 161 225 197 220 208 189 233 1 272 254 256 221 229 279 275 278 284 263 250 205 185 180 160 139 130 126 123 116 105 90 72 47 24 8 358 355 356 354 347 341 331 322 313 302 295 286 276 266 256 253 251 247 245 244 244 245 246 247 248 248 247 246 247 248 249 249 249 248 247 248 252 252 247 243 243 244 246 247 247 247 249 249 249 250 249 248 247 246 246 245 245 245 246 246
211 91 143 247 245 117 193 277 37 89 12 252 215 249 274 288 292 279 269 274 216 163 44 154 159 153 144 145 151 149 138 123 102 69 33 6 350 341 330 325 327 326 321 310 299 290 283 278 273 269 264 253 249 245 244 245 243 244 246 246 248 249 249 250 249 249 250 250 250 250 249 249 249 251 252 250 246 243 244 245 246 246 246 247 248 248 249 250 250 249 248 247 246 246 246 246 246
108 156 240 288 344 45 155 278 341 177 242 253 213 240 270 268 285 293 103 174 234 216 184 177 170 162 167 175 176 174 163 150 123 55 13 348 340 336 326 318 315 314 309 298 282 275 271 269 266 262 259 254 249 242 237 239 237 239 242 244 247 249 250 251 251 251 251 250 250 250 250 250 250 251 251 250 247 244 243 243 244 244 244 244 245 246 247 248 248 248 248 247 246 245 245 245 245
138 221 253 55 84 253 181 177 252 240 250 277 261 264 257 201 224 269 262 247 234 205 181 187 186 179 189 190 188 188 183 179 168 36 346 334 334 331 323 316 310 306 301 291 276 268 263 261 260 257 255 253 249 244 238 237 237 237 240 242 244 247 249 250 250 250 250 249 250 251 251 252 252 252 252 251 249 247 244 242 242 242 241 241 242 243 244 245 246 247 247 246 245 244 244 244 243
2 333 306 162 182 204 185 184 201 201 247 295 297 293 261 208 208 212 231 253 253 214 187 187 191 190 193 191 190 194 194 195 209 318 319 323 327 325 318 311 305 302 297 288 276 266 259 256 255 254 254 252 248 245 241 239 240 240 240 242 244 246 247 248 248 248 249 249 250 251 252 253 253 253 253 253 252 249 246 244 242 241 241 240 241 241 243 244 246 247 248 247 247 245 245 245 245
158 240 227 213 210 170 189 275 219 153 185 276 286 288 264 224 197 200 221 253 295 285 226 214 198 180 186 194 193 196 200 203 234 296 311 317 321 320 316 307 302 301 297 290 281 272 264 257 255 254 253 253 251 249 247 246 246 247 247 248 251 253 254 254 252 251 251 251 251 252 252 253 254 254 254 254 254 252 250 247 245 244 243 242 242 242 243 244 246 248 249 249 249 247 247 247 246
170 187 194 191 181 142 113 268 250 148 159 199 196 279 274 231 194 231 230 214 238 282 324 274 198 168 179 196 199 205 215 221 258 296 307 313 317 319 316 308 303 301 296 290 282 274 267 261 259 257 255 255 255 255 255 255 254 254 256 257 258 260 261 262 261 259 258 257 255 255 255 254 254 254 255 256 256 254 253 252 249 248 247 246 245 245 245 246 247 249 250 251 250 249 249 249 248